TimeCST,TemperatureF,Dew PointF,Humidity,Sea Level PressureIn,VisibilityMPH,Wind Direction,Wind SpeedMPH,Gust SpeedMPH,PrecipitationIn,Events,Conditions,WindDirDegrees,DateUTC
12:15 AM,14.0,1.4,57,30.32,10.0,Calm,Calm,-,N/A,,Clear,0,2013-12-13 06:15:00
12:35 AM,15.8,3.2,58,30.31,10.0,South,3.5,-,N/A,,Clear,190,2013-12-13 06:35:00
12:55 AM,17.6,3.2,53,30.30,10.0,SSW,3.5,-,N/A,,Clear,200,2013-12-13 06:55:00
1:15 AM,17.6,3.2,53,30.30,10.0,SSW,6.9,-,N/A,,Clear,200,2013-12-13 07:15:00
1:35 AM,17.6,3.2,53,30.30,10.0,South,4.6,-,N/A,,Clear,190,2013-12-13 07:35:00
1:55 AM,15.8,3.2,58,30.30,10.0,South,3.5,-,N/A,,Clear,190,2013-12-13 07:55:00
2:15 AM,17.6,5.0,58,30.29,10.0,South,3.5,-,N/A,,Clear,190,2013-12-13 08:15:00
2:35 AM,17.6,5.0,58,30.29,10.0,Calm,Calm,-,N/A,,Clear,0,2013-12-13 08:35:00
2:55 AM,17.6,5.0,58,30.29,10.0,Calm,Calm,-,N/A,,Clear,0,2013-12-13 08:55:00
3:15 AM,15.8,5.0,62,30.28,10.0,Calm,Calm,-,N/A,,Clear,0,2013-12-13 09:15:00
3:35 AM,15.8,6.8,68,30.28,10.0,Calm,Calm,-,N/A,,Clear,0,2013-12-13 09:35:00
3:55 AM,17.6,6.8,63,30.27,10.0,South,4.6,-,N/A,,Clear,190,2013-12-13 09:55:00
4:15 AM,17.6,8.6,68,30.26,10.0,SSW,4.6,-,N/A,,Clear,200,2013-12-13 10:15:00
4:35 AM,15.8,6.8,68,30.25,10.0,Calm,Calm,-,N/A,,Clear,0,2013-12-13 10:35:00
4:55 AM,15.8,8.6,73,30.25,10.0,Calm,Calm,-,N/A,,Clear,0,2013-12-13 10:55:00
5:15 AM,17.6,8.6,68,30.25,10.0,South,3.5,-,N/A,,Clear,190,2013-12-13 11:15:00
5:35 AM,15.8,6.8,68,30.26,10.0,Calm,Calm,-,N/A,,Clear,0,2013-12-13 11:35:00
5:55 AM,15.8,8.6,73,30.26,10.0,Calm,Calm,-,N/A,,Clear,0,2013-12-13 11:55:00
6:15 AM,15.8,8.6,73,30.26,10.0,Calm,Calm,-,N/A,,Clear,0,2013-12-13 12:15:00
6:35 AM,15.8,8.6,73,30.26,10.0,Calm,Calm,-,N/A,,Clear,0,2013-12-13 12:35:00
6:55 AM,15.8,10.4,79,30.26,10.0,Calm,Calm,-,N/A,,Clear,0,2013-12-13 12:55:00
7:15 AM,17.6,10.4,73,30.25,10.0,Calm,Calm,-,N/A,,Clear,0,2013-12-13 13:15:00
7:35 AM,17.6,10.4,73,30.26,10.0,South,3.5,-,N/A,,Clear,180,2013-12-13 13:35:00
7:55 AM,17.6,10.4,73,30.25,10.0,Calm,Calm,-,N/A,,Clear,0,2013-12-13 13:55:00
8:15 AM,17.6,10.4,73,30.26,10.0,South,6.9,-,N/A,,Clear,190,2013-12-13 14:15:00
8:35 AM,19.4,12.2,74,30.26,10.0,SSW,5.8,-,N/A,,Clear,200,2013-12-13 14:35:00
8:55 AM,23.0,14.0,68,30.26,10.0,SSW,6.9,-,N/A,,Clear,200,2013-12-13 14:55:00
9:15 AM,24.8,15.8,69,30.26,10.0,South,6.9,-,N/A,,Clear,180,2013-12-13 15:15:00
9:35 AM,26.6,15.8,64,30.26,10.0,South,6.9,-,N/A,,Clear,190,2013-12-13 15:35:00
9:55 AM,26.6,17.6,69,30.25,10.0,South,6.9,-,N/A,,Clear,190,2013-12-13 15:55:00
10:15 AM,28.4,17.6,64,30.25,10.0,South,8.1,-,N/A,,Clear,190,2013-12-13 16:15:00
10:35 AM,30.2,17.6,60,30.23,10.0,South,5.8,-,N/A,,Clear,170,2013-12-13 16:35:00
10:55 AM,30.2,17.6,60,30.22,10.0,South,6.9,-,N/A,,Clear,190,2013-12-13 16:55:00
11:15 AM,30.2,19.4,64,30.22,10.0,South,8.1,-,N/A,,Clear,190,2013-12-13 17:15:00
11:35 AM,32.0,19.4,60,30.20,10.0,South,6.9,-,N/A,,Clear,170,2013-12-13 17:35:00
11:55 AM,32.0,19.4,60,30.20,10.0,South,8.1,-,N/A,,Clear,180,2013-12-13 17:55:00
12:15 PM,33.8,19.4,56,30.17,10.0,South,8.1,-,N/A,,Clear,170,2013-12-13 18:15:00
12:35 PM,33.8,17.6,52,30.17,10.0,South,6.9,-,N/A,,Clear,170,2013-12-13 18:35:00
12:55 PM,33.8,17.6,52,30.16,10.0,South,6.9,-,N/A,,Scattered Clouds,170,2013-12-13 18:55:00
1:15 PM,35.6,19.4,52,30.15,10.0,South,6.9,-,N/A,,Scattered Clouds,170,2013-12-13 19:15:00
1:35 PM,35.6,19.4,52,30.13,10.0,South,6.9,-,N/A,,Scattered Clouds,170,2013-12-13 19:35:00
1:55 PM,35.6,19.4,52,30.11,10.0,South,6.9,-,N/A,,Scattered Clouds,170,2013-12-13 19:55:00
2:15 PM,35.6,19.4,52,30.11,10.0,South,9.2,-,N/A,,Scattered Clouds,170,2013-12-13 20:15:00
2:35 PM,35.6,19.4,52,30.11,10.0,SSE,6.9,-,N/A,,Clear,160,2013-12-13 20:35:00
2:55 PM,35.6,19.4,52,30.12,10.0,South,5.8,-,N/A,,Scattered Clouds,170,2013-12-13 20:55:00
3:15 PM,35.6,21.2,56,30.15,10.0,South,10.4,-,N/A,,Scattered Clouds,190,2013-12-13 21:15:00
3:35 PM,37.4,23.0,56,30.16,7.0,SSW,15.0,21.9,N/A,Snow,Light Snow,200,2013-12-13 21:35:00
3:55 PM,35.6,28.4,75,30.17,1.0,SSW,12.7,-,N/A,Snow,Light Snow,200,2013-12-13 21:55:00
3:59 PM,35.6,28.4,75,30.17,0.8,SSW,12.7,-,N/A,Snow,Light Snow,200,2013-12-13 21:59:00
4:15 PM,33.8,28.4,81,30.16,1.0,South,9.2,-,N/A,Snow,Light Snow,190,2013-12-13 22:15:00
4:35 PM,33.8,28.4,81,30.14,3.0,South,6.9,-,0.01,Snow,Light Snow,180,2013-12-13 22:35:00
4:55 PM,33.8,28.4,81,30.12,5.0,SSE,6.9,-,0.04,,Overcast,150,2013-12-13 22:55:00
5:15 PM,33.8,28.4,81,30.11,10.0,ESE,5.8,-,0.01,,Overcast,120,2013-12-13 23:15:00
5:35 PM,33.8,28.4,81,30.11,10.0,SE,4.6,-,0.01,,Mostly Cloudy,130,2013-12-13 23:35:00
5:55 PM,33.8,28.4,81,30.11,7.0,SE,5.8,-,0.01,,Overcast,130,2013-12-13 23:55:00
6:15 PM,33.8,28.4,81,30.10,7.0,ESE,4.6,-,N/A,,Overcast,120,2013-12-14 00:15:00
6:35 PM,33.8,28.4,81,30.10,7.0,SSE,4.6,-,N/A,,Overcast,150,2013-12-14 00:35:00
6:55 PM,33.8,28.4,81,30.09,10.0,SE,4.6,-,N/A,,Overcast,140,2013-12-14 00:55:00
7:15 PM,33.8,28.4,81,30.09,10.0,ESE,4.6,-,N/A,,Overcast,120,2013-12-14 01:15:00
7:35 PM,33.8,28.4,81,30.07,10.0,ESE,5.8,-,N/A,,Overcast,110,2013-12-14 01:35:00
7:55 PM,33.8,28.4,81,30.08,10.0,ESE,5.8,-,N/A,,Overcast,120,2013-12-14 01:55:00
8:15 PM,33.8,28.4,81,30.09,10.0,SE,6.9,-,N/A,,Overcast,140,2013-12-14 02:15:00
8:35 PM,33.8,28.4,81,30.08,10.0,SE,5.8,-,N/A,,Overcast,130,2013-12-14 02:35:00
8:55 PM,35.6,28.4,75,30.07,10.0,ESE,5.8,-,N/A,,Overcast,110,2013-12-14 02:55:00
9:15 PM,35.6,28.4,75,30.06,10.0,ESE,4.6,-,N/A,,Overcast,120,2013-12-14 03:15:00
9:35 PM,35.6,28.4,75,30.07,10.0,SSE,5.8,-,N/A,,Light Drizzle,150,2013-12-14 03:35:00
9:55 PM,35.6,28.4,75,30.06,5.0,ESE,8.1,-,N/A,Rain,Rain,120,2013-12-14 03:55:00
10:15 PM,35.6,28.4,75,30.06,10.0,SE,9.2,-,N/A,,Overcast,130,2013-12-14 04:15:00
10:35 PM,35.6,28.4,75,30.05,10.0,SE,11.5,-,N/A,Rain,Light Rain,140,2013-12-14 04:35:00
10:55 PM,35.6,28.4,75,30.04,5.0,SSE,9.2,-,N/A,Rain,Light Rain,150,2013-12-14 04:55:00
11:15 PM,33.8,28.4,81,30.03,5.0,SE,10.4,-,N/A,,Overcast,140,2013-12-14 05:15:00
11:35 PM,33.8,28.4,81,30.03,4.0,SE,5.8,-,0.01,Snow,Light Snow,140,2013-12-14 05:35:00
11:55 PM,33.8,28.4,81,30.02,4.0,SE,6.9,-,0.01,Snow,Light Snow,130,2013-12-14 05:55:00